CZ-6A DEB

Satellite information

Favourite Embed

Satellite Type and Status

DEBRISIN ORBIT

Key statistics

Satellite CZ-6A DEB at a glance.

Uptime

1129

Days in orbit

Revolutions

≈ 14.3

Per day

Orbit

SSO

Sun Synchronous Orbit

Inclination

98.9

Latest

Satellite identification and parameters

Extended collection of information and parameters for CZ-6A DEB.

Object identification

Identified? True

Debris? True

Object name: CZ-6A DEB

International designator: 2022-151XS

Object number (NORAD): 55520

Object ID (CCSDS): 55520

Country: PEOPLES REPUBLIC OF CHINA (PRC)

Current information (Y/N): Y

RCS size: SMALL

Orbital parameters

Period: 101.003 minutes

Inclination: 98.9207 deg

SMA: 7184.294 km

Apoapsis: 857.169 km

Periapsis: 755.149 km

RAAN: 23.7622 deg

Eccentricy: 0.00710019

Argument of periapsis: 7.6358 deg

Mean anomaly: 352.5885 deg

Mean motion: 14.25695019 rev/day

Mean motion (dot): 0.00003718 rev/day2

B* drag term: 0.0015445296 1/REarth

Two-line elements (TLE)

Creation date: Dec. 12, 2025, 10:14 a.m.

Reference frame: TEME

Reference center: EARTH

Epoch: Dec. 12, 2025, 1:31 a.m. UTC

TLE line 0: 0 CZ-6A DEB

TLE line 1: 1 55520U 22151XS 25346.06378405 .00003718 00000-0 15445-2 0 9991

TLE line 2: 2 55520 98.9207 23.7622 0071002 7.6358 352.5885 14.25695019154687

Live tracking on map

Real-time ground track for satellite CZ-6A DEB.

In-orbit conjunctions

A list of the most updated potential collisions computed for object CZ-6A DEB.

Target Orbit TCA Probability of collision Miss distance Type
CZ-6A DEB LEO 2025-07-20 10:57:42 0.0001080293 722.0 (m) DEBRIS
COSMOS 1898 LEO 2025-04-17 19:16:52 0.0001040054 727.0 (m) PAYLOAD
NOAA 6 SSO 2025-02-18 20:37:58 0.0005758899 428.0 (m) PAYLOAD
METEOR 1-13 LEO 2025-01-24 11:38:00 0.002839404 75.0 (m) PAYLOAD
THORAD AGENA D DEB LEO 2024-11-14 00:11:32 0.0001057809 643.0 (m) DEBRIS

Associated space launch

Chinese satellite reported for atmospheric/ocean/environmental/spatial parameter research purposes, details TBD.

CZ-6A DEB was lifted into orbit during the mission ‘Long March 6A | Yunhai 3’, on board a Long March 6A space rocket.

The launch took place on Nov. 11, 2022, 10:52 p.m. from Launch Complex 9A.

For more information about the launch, click the button.

Launch to space Long March 6A | Yunhai 3
Long March 6A | Yunhai 3

Agency: N/A

Status: Launch Successful

Launch date: Nov. 11, 2022, 10:52 p.m. UTC

Rocket: Long March 6A

Launch pad: Launch Complex 9A

Location: Taiyuan Satellite Launch Center, People's Republic of China

...

Latest news about this satellite

There are no fresh news available about this satellite. Check back as we update our databases every day.


Newsletter sign-up

Weekly statistics, charts and insights to help you stay on top of the space industry.